,,PA_Meas_PMT16A,,PR_Meas_QMR101_102,,RH_Meas_QMH101,,SR_Meas_QMS101,,TA_Meas_QMH101,,GenWind,,GenWind,
time,status,PA,status,PR,status,RH,status,SR,status,TA,status,DirAvg,status,SpdAvg,
2013-09-20, 00:00:04,VALID,917.456,VALID,0,VALID,92.129,VALID,0,VALID,19.5078,VALID,349,VALID,0,
2013-09-20, 00:01:04,VALID,917.445,VALID,0,VALID,91.6716,VALID,0,VALID,19.4883,VALID,349,VALID,0,
2013-09-20, 00:02:04,VALID,917.451,VALID,0,VALID,91.8469,VALID,0,VALID,19.4883,VALID,349,VALID,0,
2013-09-20, 00:03:04,VALID,917.402,VALID,0,VALID,90.7491,VALID,0,VALID,19.3338,VALID,27,VALID,0,
2013-09-20, 00:04:04,VALID,917.415,VALID,0,VALID,92.0146,VALID,0,VALID,19.3533,VALID,8,VALID,0,
2013-09-20, 00:05:04,VALID,917.416,VALID,0,VALID,92.6397,VALID,0,VALID,19.4118,VALID,2,VALID,0,
2013-09-20, 00:06:04,VALID,917.439,VALID,0,VALID,92.3196,VALID,0,VALID,19.3908,VALID,3,VALID,0,
2013-09-20, 00:07:04,VALID,917.436,VALID,0,VALID,92.6093,VALID,0.107441,VALID,19.4103,VALID,3,VALID,0,
2013-09-20, 00:08:04,VALID,917.416,VALID,0,VALID,92.9981,VALID,0,VALID,19.4688,VALID,3,VALID,0,
2013-09-20, 00:09:04,VALID,917.423,VALID,0,VALID,92.6093,VALID,0.107441,VALID,19.4493,VALID,3,VALID,0,
2013-09-20, 00:10:04,VALID,917.396,VALID,0,VALID,92.4949,VALID,0,VALID,19.4898,VALID,3,VALID,0,
2013-09-20, 00:11:04,VALID,917.412,VALID,0,VALID,92.4949,VALID,0,VALID,19.5093,VALID,3,VALID,0,
2013-09-20, 00:12:04,VALID,917.423,VALID,0,VALID,92.411,VALID,0.107441,VALID,19.5078,VALID,3,VALID,0,
2013-09-20, 00:13:04,VALID,917.401,VALID,0,VALID,92.7389,VALID,0.107441,VALID,19.5468,VALID,3,VALID,0,
2013-09-20, 00:14:04,VALID,917.372,VALID,0,VALID,92.4797,VALID,0,VALID,19.5663,VALID,3,VALID,0,
2013-09-20, 00:15:04,VALID,917.367,VALID,0,VALID,92.2814,VALID,0,VALID,19.5873,VALID,3,VALID,0,
2013-09-20, 00:16:04,VALID,917.369,VALID,0,VALID,92.4492,VALID,0,VALID,19.6248,VALID,3,VALID,0,
2013-09-20, 00:17:04,VALID,917.402,VALID,0,VALID,92.2052,VALID,0,VALID,19.6443,VALID,3,VALID,0,
2013-09-20, 00:18:04,VALID,917.399,VALID,0,VALID,91.7783,VALID,0,VALID,19.6248,VALID,3,VALID,0,
2013-09-20, 00:19:04,VALID,917.378,VALID,0,VALID,91.3057,VALID,0,VALID,19.6263,VALID,3,VALID,0,
2013-09-20, 00:20:04,VALID,917.34,VALID,0,VALID,90.7034,VALID,0,VALID,19.6068,VALID,3,VALID,0,
2013-09-20, 00:21:05,VALID,917.32,VALID,0,VALID,90.9245,VALID,0,VALID,19.5663,VALID,3,VALID,0,
2013-09-20, 00:22:05,VALID,917.36,VALID,0,VALID,90.8025,VALID,0,VALID,19.4883,VALID,3,VALID,0,
2013-09-20, 00:23:05,VALID,917.371,VALID,0,VALID,91.0922,VALID,0,VALID,19.4508,VALID,3,VALID,0,
2013-09-20, 00:24:05,VALID,917.349,VALID,0,VALID,91.3438,VALID,0,VALID,19.4508,VALID,3,VALID,0,
2013-09-20, 00:25:05,VALID,917.333,VALID,0,VALID,91.4429,VALID,0,VALID,19.4118,VALID,3,VALID,0,
2013-09-20, 00:26:05,VALID,917.316,VALID,0,VALID,91.359,VALID,0,VALID,19.3908,VALID,3,VALID,0,
2013-09-20, 00:27:05,VALID,917.263,VALID,0,VALID,91.3438,VALID,0.107441,VALID,19.4118,VALID,3,VALID,0,
2013-09-20, 00:28:05,VALID,917.229,VALID,0,VALID,91.5115,VALID,0,VALID,19.3908,VALID,3,VALID,0,
2013-09-20, 00:29:05,VALID,917.214,VALID,0,VALID,91.7097,VALID,0,VALID,19.4493,VALID,3,VALID,0,
2013-09-20, 00:30:05,VALID,917.174,VALID,0,VALID,91.7707,VALID,0,VALID,19.4883,VALID,3,VALID,0,
2013-09-20, 00:31:05,VALID,917.15,VALID,0,VALID,91.9155,VALID,0,VALID,19.5273,VALID,3,VALID,0,
2013-09-20, 00:32:05,VALID,917.133,VALID,0,VALID,91.7478,VALID,0,VALID,19.5678,VALID,3,VALID,0,
2013-09-20, 00:33:05,VALID,917.121,VALID,0,VALID,91.4429,VALID,0,VALID,19.5483,VALID,3,VALID,0,
2013-09-20, 00:34:05,VALID,917.066,VALID,0,VALID,91.2675,VALID,0,VALID,19.5078,VALID,3,VALID,0,
2013-09-20, 00:35:05,VALID,917.033,VALID,0,VALID,90.2841,VALID,0,VALID,19.3923,VALID,3,VALID,0,
2013-09-20, 00:36:05,VALID,917.04,VALID,0,VALID,91.5572,VALID,0,VALID,19.3128,VALID,3,VALID,0,
2013-09-20, 00:37:05,VALID,917.074,VALID,0,VALID,92.1137,VALID,0,VALID,19.3128,VALID,3,VALID,0,
2013-09-20, 00:38:05,VALID,917.089,VALID,0,VALID,91.9994,VALID,0,VALID,19.2543,VALID,3,VALID,0,
2013-09-20, 00:39:05,VALID,917.061,VALID,0,VALID,92.3729,VALID,0,VALID,19.2948,VALID,3,VALID,0,
2013-09-20, 00:40:05,VALID,917.06,VALID,0,VALID,92.4949,VALID,0,VALID,19.3143,VALID,3,VALID,0,
2013-09-20, 00:41:05,VALID,917.047,VALID,0,VALID,92.6626,VALID,0,VALID,19.3323,VALID,3,VALID,0,
2013-09-20, 00:42:05,VALID,917.048,VALID,0,VALID,92.4568,VALID,0,VALID,19.3518,VALID,3,VALID,0,
2013-09-20, 00:43:05,VALID,917.04,VALID,0,VALID,92.0756,VALID,0,VALID,19.3128,VALID,3,VALID,0,
2013-09-20, 00:44:05,VALID,917.027,VALID,0,VALID,91.2218,VALID,0,VALID,19.2348,VALID,3,VALID,0,
2013-09-20, 00:45:05,VALID,917.012,VALID,0,VALID,91.5191,VALID,0,VALID,19.1568,VALID,3,VALID,0,
2013-09-20, 00:46:05,VALID,916.988,VALID,0,VALID,92.4492,VALID,0,VALID,19.1568,VALID,3,VALID,0,
2013-09-20, 00:47:05,VALID,916.948,VALID,0,VALID,92.7084,VALID,0,VALID,19.1373,VALID,3,VALID,0,
2013-09-20, 00:48:05,VALID,916.923,VALID,0,VALID,92.8075,VALID,0,VALID,19.1568,VALID,3,VALID,0,
2013-09-20, 00:49:05,VALID,916.879,VALID,0,VALID,92.6093,VALID,0,VALID,19.1178,VALID,3,VALID,0,
2013-09-20, 00:50:05,VALID,916.867,VALID,0,VALID,92.8608,VALID,0,VALID,19.1193,VALID,3,VALID,0,
2013-09-20, 00:51:05,VALID,916.857,VALID,0,VALID,92.8151,VALID,0,VALID,19.0803,VALID,3,VALID,0,
2013-09-20, 00:52:05,VALID,916.859,VALID,0,VALID,93.1581,VALID,0,VALID,19.1193,VALID,12,VALID,0,
2013-09-20, 00:53:05,VALID,916.871,VALID,0,VALID,92.8151,VALID,0,VALID,19.0413,VALID,12,VALID,0,
2013-09-20, 00:54:05,VALID,916.845,VALID,0,VALID,92.8837,VALID,0,VALID,19.0203,VALID,12,VALID,0,
2013-09-20, 00:55:05,VALID,916.827,VALID,0,VALID,93.3182,VALID,0,VALID,19.0803,VALID,8,VALID,0,
2013-09-20, 00:56:05,VALID,916.823,VALID,0,VALID,93.6079,VALID,0,VALID,19.1193,VALID,1,VALID,0,
2013-09-20, 00:57:05,VALID,916.806,VALID,0,VALID,93.4859,VALID,0,VALID,19.0788,VALID,1,VALID,0,
2013-09-20, 00:58:05,VALID,916.794,VALID,0,VALID,93.6537,VALID,0,VALID,19.0998,VALID,1,VALID,0,
2013-09-20, 00:59:05,VALID,916.78,VALID,0,VALID,93.8061,VALID,0.107441,VALID,19.1778,VALID,1,VALID,0,
2013-09-20, 01:00:05,VALID,916.739,VALID,0,VALID,93.8061,VALID,0,VALID,19.1763,VALID,1,VALID,0,
2013-09-20, 01:01:05,VALID,916.698,VALID,0,VALID,93.6918,VALID,0,VALID,19.1958,VALID,1,VALID,0,
2013-09-20, 01:02:05,VALID,916.669,VALID,0,VALID,93.6994,VALID,0,VALID,19.2558,VALID,1,VALID,0,
2013-09-20, 01:03:05,VALID,916.677,VALID,0,VALID,93.3106,VALID,0,VALID,19.2153,VALID,1,VALID,0,
2013-09-20, 01:04:05,VALID,916.667,VALID,0,VALID,93.6918,VALID,0,VALID,19.2753,VALID,344,VALID,0,
2013-09-20, 01:05:05,VALID,916.588,VALID,0,VALID,93.6994,VALID,0,VALID,19.3533,VALID,344,VALID,0,
2013-09-20, 01:06:05,VALID,916.532,VALID,0,VALID,93.2725,VALID,0,VALID,19.3338,VALID,3,VALID,0,
2013-09-20, 01:07:05,VALID,916.51,VALID,0,VALID,92.9676,VALID,0,VALID,19.3323,VALID,357,VALID,0,
2013-09-20, 01:08:05,VALID,916.55,VALID,0,VALID,92.472,VALID,0,VALID,19.3143,VALID,349,VALID,0,
2013-09-20, 01:09:05,VALID,916.523,VALID,0,VALID,92.411,VALID,0,VALID,19.3323,VALID,341,VALID,0,
2013-09-20, 01:10:05,VALID,916.487,VALID,0,VALID,92.4263,VALID,0,VALID,19.3323,VALID,2,VALID,0,
2013-09-20, 01:11:05,VALID,916.472,VALID,0,VALID,92.2128,VALID,0,VALID,19.3128,VALID,11,VALID,0,
2013-09-20, 01:12:05,VALID,916.461,VALID,0,VALID,92.7617,VALID,0,VALID,19.3128,VALID,329,VALID,0,
2013-09-20, 01:13:05,VALID,916.399,VALID,0,VALID,92.9447,VALID,0,VALID,19.3323,VALID,324,VALID,0,
2013-09-20, 01:14:05,VALID,916.365,VALID,0,VALID,93.0285,VALID,0,VALID,19.2933,VALID,360,VALID,0,
2013-09-20, 01:15:05,VALID,916.394,VALID,0,VALID,93.1048,VALID,0,VALID,19.2738,VALID,354,VALID,0,
2013-09-20, 01:16:05,VALID,916.375,VALID,0,VALID,92.8608,VALID,0,VALID,19.2738,VALID,357,VALID,0,
2013-09-20, 01:17:05,VALID,916.344,VALID,0,VALID,93.0057,VALID,0,VALID,19.2738,VALID,357,VALID,0,
2013-09-20, 01:18:05,VALID,916.354,VALID,0,VALID,92.8913,VALID,0,VALID,19.2738,VALID,357,VALID,0,
2013-09-20, 01:19:05,VALID,916.344,VALID,0,VALID,92.8989,VALID,0,VALID,19.2948,VALID,357,VALID,0,
2013-09-20, 01:20:05,VALID,916.317,VALID,0,VALID,92.7922,VALID,0,VALID,19.2948,VALID,356,VALID,0,
2013-09-20, 01:21:05,VALID,916.318,VALID,0,VALID,92.7998,VALID,0,VALID,19.2948,VALID,349,VALID,0,
2013-09-20, 01:22:05,VALID,916.339,VALID,0,VALID,92.8761,VALID,0,VALID,19.2558,VALID,5,VALID,0,
2013-09-20, 01:23:05,VALID,916.35,VALID,0,VALID,93.3716,VALID,0,VALID,19.2558,VALID,337,VALID,0,
2013-09-20, 01:24:05,VALID,916.369,VALID,0,VALID,93.2801,VALID,0,VALID,19.2753,VALID,345,VALID,0,
2013-09-20, 01:25:05,VALID,916.353,VALID,0,VALID,93.5851,VALID,0,VALID,19.3143,VALID,340,VALID,0,
2013-09-20, 01:26:05,VALID,916.367,VALID,0,VALID,93.7451,VALID,0,VALID,19.3533,VALID,334,VALID,0,
2013-09-20, 01:27:05,VALID,916.346,VALID,0,VALID,93.3716,VALID,0,VALID,19.3518,VALID,334,VALID,0,
2013-09-20, 01:28:05,VALID,916.375,VALID,0,VALID,92.5102,VALID,0,VALID,19.2558,VALID,334,VALID,0,
2013-09-20, 01:29:05,VALID,916.38,VALID,0,VALID,91.885,VALID,0,VALID,19.1568,VALID,334,VALID,0,
2013-09-20, 01:30:05,VALID,916.349,VALID,0,VALID,92.4492,VALID,0,VALID,19.1778,VALID,348,VALID,0,
2013-09-20, 01:31:05,VALID,916.343,VALID,0,VALID,92.9447,VALID,0,VALID,19.1583,VALID,2,VALID,0,
2013-09-20, 01:32:05,VALID,916.301,VALID,0,VALID,93.5622,VALID,0,VALID,19.1778,VALID,335,VALID,0,
2013-09-20, 01:33:05,VALID,916.278,VALID,0,VALID,94.0043,VALID,0,VALID,19.2558,VALID,335,VALID,0,
2013-09-20, 01:34:05,VALID,916.317,VALID,0,VALID,93.9662,VALID,0,VALID,19.2948,VALID,345,VALID,0,
2013-09-20, 01:35:05,VALID,916.329,VALID,0,VALID,93.9281,VALID,0,VALID,19.3533,VALID,335,VALID,0,
2013-09-20, 01:36:05,VALID,916.3,VALID,0,VALID,93.8747,VALID,0,VALID,19.4118,VALID,335,VALID,0,
2013-09-20, 01:37:05,VALID,916.276,VALID,0,VALID,93.1963,VALID,0,VALID,19.3728,VALID,335,VALID,0,
2013-09-20, 01:38:05,VALID,916.304,VALID,0,VALID,92.7312,VALID,0,VALID,19.2948,VALID,345,VALID,0,
2013-09-20, 01:39:05,VALID,916.291,VALID,0,VALID,93.2039,VALID,0,VALID,19.3143,VALID,348,VALID,0,
2013-09-20, 01:40:05,VALID,916.292,VALID,0,VALID,93.364,VALID,0,VALID,19.3143,VALID,345,VALID,0,
2013-09-20, 01:41:05,VALID,916.322,VALID,0,VALID,93.4631,VALID,0,VALID,19.3338,VALID,345,VALID,0,
2013-09-20, 01:42:05,VALID,916.31,VALID,0,VALID,93.4631,VALID,0,VALID,19.3323,VALID,345,VALID,0,
2013-09-20, 01:43:05,VALID,916.26,VALID,0,VALID,93.2268,VALID,0,VALID,19.3143,VALID,345,VALID,0,
2013-09-20, 01:44:05,VALID,916.233,VALID,0,VALID,93.0362,VALID,0,VALID,19.2933,VALID,345,VALID,0,
2013-09-20, 01:45:05,VALID,916.217,VALID,0,VALID,93.2268,VALID,0,VALID,19.2933,VALID,345,VALID,0,
2013-09-20, 01:46:05,VALID,916.198,VALID,0,VALID,93.3411,VALID,0,VALID,19.2933,VALID,345,VALID,0,
2013-09-20, 01:47:05,VALID,916.187,VALID,0,VALID,93.2649,VALID,0,VALID,19.2933,VALID,345,VALID,0,
2013-09-20, 01:48:05,VALID,916.179,VALID,0,VALID,93.1658,VALID,0.107441,VALID,19.2933,VALID,345,VALID,0,
2013-09-20, 01:49:05,VALID,916.179,VALID,0,VALID,92.9599,VALID,0,VALID,19.2948,VALID,345,VALID,0,
2013-09-20, 01:50:05,VALID,916.128,VALID,0,VALID,92.3196,VALID,0,VALID,19.1763,VALID,345,VALID,0,
2013-09-20, 01:51:05,VALID,916.135,VALID,0,VALID,91.7402,VALID,0,VALID,19.0998,VALID,345,VALID,0,
2013-09-20, 01:52:05,VALID,916.099,VALID,0,VALID,92.9218,VALID,0,VALID,19.0983,VALID,345,VALID,0,
2013-09-20, 01:53:05,VALID,916.114,VALID,0,VALID,93.4631,VALID,0,VALID,19.0998,VALID,360,VALID,0,
2013-09-20, 01:54:05,VALID,916.123,VALID,0,VALID,93.6537,VALID,0,VALID,19.0608,VALID,2,VALID,0,
2013-09-20, 01:55:05,VALID,916.143,VALID,0,VALID,93.7528,VALID,0,VALID,19.0008,VALID,3,VALID,0,
2013-09-20, 01:56:05,VALID,916.128,VALID,0,VALID,93.6079,VALID,0,VALID,18.9438,VALID,5,VALID,0,
2013-09-20, 01:57:05,VALID,916.126,VALID,0,VALID,93.8976,VALID,0,VALID,18.9633,VALID,5,VALID,0,
2013-09-20, 01:58:05,VALID,916.09,VALID,0,VALID,93.9738,VALID,0,VALID,18.9229,VALID,5,VALID,0,
2013-09-20, 01:59:05,VALID,916.08,VALID,0,VALID,94.2559,VALID,0,VALID,18.9438,VALID,5,VALID,0,
2013-09-20, 02:00:05,VALID,916.102,VALID,0,VALID,94.233,VALID,0,VALID,18.9633,VALID,5,VALID,0,
2013-09-20, 02:01:05,VALID,916.105,VALID,0,VALID,94.1263,VALID,0,VALID,18.9438,VALID,5,VALID,0,
2013-09-20, 02:02:05,VALID,916.143,VALID,0,VALID,94.0043,VALID,0,VALID,18.9243,VALID,5,VALID,0,
2013-09-20, 02:03:05,VALID,916.143,VALID,0,VALID,94.0272,VALID,0.107441,VALID,18.9243,VALID,5,VALID,0,
2013-09-20, 02:04:05,VALID,916.166,VALID,0,VALID,94.2712,VALID,0,VALID,18.9243,VALID,5,VALID,0,
2013-09-20, 02:05:05,VALID,916.152,VALID,0,VALID,94.7438,VALID,0,VALID,19.0218,VALID,300,VALID,0,
2013-09-20, 02:06:05,VALID,916.131,VALID,0,VALID,94.6981,VALID,0,VALID,19.0998,VALID,300,VALID,0,
2013-09-20, 02:07:05,VALID,916.134,VALID,0,VALID,94.5609,VALID,0,VALID,19.1388,VALID,300,VALID,0,
2013-09-20, 02:08:05,VALID,916.121,VALID,0,VALID,93.7299,VALID,0,VALID,19.0788,VALID,301,VALID,0,
2013-09-20, 02:09:05,VALID,916.077,VALID,0,VALID,92.7465,VALID,0,VALID,18.9243,VALID,306,VALID,0,
2013-09-20, 02:10:05,VALID,916.066,VALID,0,VALID,93.3182,VALID,0,VALID,18.9048,VALID,307,VALID,0,
2013-09-20, 02:11:05,VALID,916.054,VALID,0,VALID,94.0806,VALID,0,VALID,18.9828,VALID,307,VALID,0,
2013-09-20, 02:12:05,VALID,916.061,VALID,0,VALID,94.0348,VALID,0,VALID,18.9828,VALID,307,VALID,0,
2013-09-20, 02:13:05,VALID,916.068,VALID,0,VALID,93.7451,VALID,0,VALID,18.9229,VALID,23,VALID,0,
2013-09-20, 02:14:05,VALID,916.077,VALID,0,VALID,94.1644,VALID,0,VALID,18.9633,VALID,10,VALID,0,
2013-09-20, 02:15:05,VALID,916.156,VALID,0,VALID,94.0577,VALID,0,VALID,18.9828,VALID,10,VALID,0,
2013-09-20, 02:16:05,VALID,916.181,VALID,0,VALID,93.7833,VALID,0,VALID,18.9828,VALID,10,VALID,0,
2013-09-20, 02:17:05,VALID,916.138,VALID,0,VALID,93.6765,VALID,0,VALID,18.9633,VALID,14,VALID,0,
2013-09-20, 02:18:05,VALID,916.103,VALID,0,VALID,93.4173,VALID,0,VALID,18.9034,VALID,20,VALID,0,
2013-09-20, 02:19:05,VALID,916.072,VALID,0,VALID,93.7223,VALID,0,VALID,18.9438,VALID,21,VALID,0,
2013-09-20, 02:20:05,VALID,916.065,VALID,0,VALID,93.768,VALID,0,VALID,18.9633,VALID,14,VALID,0,
2013-09-20, 02:21:05,VALID,916.064,VALID,0,VALID,93.7528,VALID,0,VALID,18.9633,VALID,13,VALID,0,
2013-09-20, 02:22:05,VALID,916.109,VALID,0,VALID,93.707,VALID,0,VALID,18.9828,VALID,18,VALID,0,
2013-09-20, 02:23:05,VALID,916.133,VALID,0,VALID,93.768,VALID,0.107441,VALID,19.0023,VALID,18,VALID,0,
2013-09-20, 02:24:05,VALID,916.11,VALID,0,VALID,93.4936,VALID,0,VALID,18.9814,VALID,18,VALID,0,
2013-09-20, 02:25:05,VALID,916.093,VALID,0,VALID,93.4783,VALID,0,VALID,18.9814,VALID,17,VALID,0,
2013-09-20, 02:26:05,VALID,916.104,VALID,0,VALID,93.8366,VALID,0,VALID,19.0218,VALID,15,VALID,0,
2013-09-20, 02:27:05,VALID,916.084,VALID,0,VALID,93.9815,VALID,0,VALID,19.0398,VALID,13,VALID,0,
2013-09-20, 02:28:05,VALID,916.065,VALID,0,VALID,93.9967,VALID,0.107441,VALID,19.0998,VALID,12,VALID,0,
2013-09-20, 02:29:05,VALID,916.106,VALID,0,VALID,93.7451,VALID,0,VALID,19.0983,VALID,15,VALID,0,
2013-09-20, 02:30:05,VALID,916.099,VALID,0,VALID,93.4326,VALID,0,VALID,19.0803,VALID,16,VALID,0,
2013-09-20, 02:31:05,VALID,916.073,VALID,0,VALID,93.2801,VALID,0,VALID,19.0608,VALID,16,VALID,0,
2013-09-20, 02:32:05,VALID,916.05,VALID,0,VALID,93.0667,VALID,0,VALID,18.9828,VALID,16,VALID,0,
2013-09-20, 02:33:05,VALID,916.039,VALID,0,VALID,93.2649,VALID,0,VALID,18.9438,VALID,16,VALID,0,
2013-09-20, 02:34:05,VALID,916.01,VALID,0,VALID,93.8747,VALID,0,VALID,18.9633,VALID,3,VALID,0,
2013-09-20, 02:35:05,VALID,915.999,VALID,0,VALID,94.1416,VALID,0,VALID,18.9828,VALID,7,VALID,0,
2013-09-20, 02:36:05,VALID,916.071,VALID,0,VALID,94.0272,VALID,0.107441,VALID,18.9828,VALID,6,VALID,0,
2013-09-20, 02:37:05,VALID,916.115,VALID,0,VALID,93.8671,VALID,0,VALID,18.9828,VALID,15,VALID,0,
2013-09-20, 02:38:05,VALID,916.118,VALID,0,VALID,94.0043,VALID,0,VALID,19.0023,VALID,10,VALID,0,
2013-09-20, 02:39:05,VALID,916.102,VALID,0,VALID,94.0958,VALID,0,VALID,18.9814,VALID,339,VALID,0,
2013-09-20, 02:40:05,VALID,916.104,VALID,0,VALID,94.1263,VALID,0,VALID,19.0218,VALID,332,VALID,0,
2013-09-20, 02:41:05,VALID,916.083,VALID,0,VALID,94.0806,VALID,0,VALID,19.0218,VALID,332,VALID,0,
2013-09-20, 02:42:05,VALID,916.145,VALID,0,VALID,94.2407,VALID,0,VALID,19.0608,VALID,329,VALID,0,
2013-09-20, 02:43:05,VALID,916.143,VALID,0,VALID,94.1492,VALID,0,VALID,19.0023,VALID,328,VALID,0,
2013-09-20, 02:44:05,VALID,916.142,VALID,0,VALID,94.1339,VALID,0,VALID,19.0218,VALID,6,VALID,0,
2013-09-20, 02:45:05,VALID,916.165,VALID,0,VALID,94.0272,VALID,0,VALID,19.0023,VALID,357,VALID,0,
2013-09-20, 02:46:05,VALID,916.152,VALID,0,VALID,94.0348,VALID,0,VALID,19.0218,VALID,357,VALID,0,
2013-09-20, 02:47:05,VALID,916.142,VALID,0,VALID,94.0425,VALID,0,VALID,18.9828,VALID,357,VALID,0,
2013-09-20, 02:48:05,VALID,916.099,VALID,0,VALID,93.9891,VALID,0,VALID,18.9438,VALID,357,VALID,0,
2013-09-20, 02:49:05,VALID,916.094,VALID,0,VALID,93.9662,VALID,0,VALID,18.8853,VALID,357,VALID,0,
2013-09-20, 02:50:05,VALID,916.049,VALID,0,VALID,93.829,VALID,0,VALID,18.9048,VALID,352,VALID,0,
2013-09-20, 02:51:05,VALID,916.042,VALID,0,VALID,93.7604,VALID,0,VALID,18.8073,VALID,352,VALID,0,
2013-09-20, 02:52:05,VALID,916.041,VALID,0,VALID,94.0577,VALID,0,VALID,18.8073,VALID,352,VALID,0,
2013-09-20, 02:53:05,VALID,916.073,VALID,0,VALID,94.073,VALID,0,VALID,18.8477,VALID,352,VALID,0,
2013-09-20, 02:54:05,VALID,916.091,VALID,0,VALID,93.9815,VALID,0,VALID,18.8073,VALID,352,VALID,0,
2013-09-20, 02:55:05,VALID,916.089,VALID,0,VALID,93.9052,VALID,0,VALID,18.7892,VALID,352,VALID,0,
2013-09-20, 02:56:05,VALID,916.055,VALID,0,VALID,93.7833,VALID,0,VALID,18.6903,VALID,353,VALID,0,
2013-09-20, 02:57:05,VALID,916.07,VALID,0,VALID,93.6537,VALID,0,VALID,18.6513,VALID,353,VALID,0,
2013-09-20, 02:58:05,VALID,916.127,VALID,0,VALID,94.012,VALID,0,VALID,18.6513,VALID,353,VALID,0,
2013-09-20, 02:59:05,VALID,916.115,VALID,0,VALID,94.3626,VALID,0,VALID,18.7503,VALID,353,VALID,0,
2013-09-20, 03:00:05,VALID,916.106,VALID,0,VALID,94.1034,VALID,0,VALID,18.7293,VALID,353,VALID,0,
2013-09-20, 03:01:05,VALID,916.065,VALID,0,VALID,94.1416,VALID,0,VALID,18.7308,VALID,353,VALID,0,
2013-09-20, 03:02:05,VALID,916.107,VALID,0,VALID,94.2254,VALID,0,VALID,18.7488,VALID,353,VALID,0,
2013-09-20, 03:03:05,VALID,916.085,VALID,0,VALID,94.4313,VALID,0,VALID,18.7488,VALID,353,VALID,0,
2013-09-20, 03:04:05,VALID,916.028,VALID,0,VALID,94.5075,VALID,0,VALID,18.7878,VALID,353,VALID,0,
2013-09-20, 03:05:04,VALID,916.005,VALID,0,VALID,94.5151,VALID,0,VALID,18.8073,VALID,353,VALID,0,
2013-09-20, 03:06:04,VALID,916.002,VALID,0,VALID,94.3474,VALID,0,VALID,18.7488,VALID,353,VALID,0,
2013-09-20, 03:07:04,VALID,915.994,VALID,0,VALID,94.4922,VALID,0,VALID,18.7488,VALID,353,VALID,0,
2013-09-20, 03:08:04,VALID,916.036,VALID,0,VALID,94.7362,VALID,0,VALID,18.8073,VALID,353,VALID,0,
2013-09-20, 03:09:04,VALID,916.055,VALID,0,VALID,94.8887,VALID,0,VALID,18.8672,VALID,353,VALID,0,
2013-09-20, 03:10:04,VALID,916.054,VALID,0,VALID,94.9801,VALID,0,VALID,18.8672,VALID,353,VALID,0,
2013-09-20, 03:11:04,VALID,916.047,VALID,0,VALID,94.6752,VALID,0,VALID,18.8268,VALID,353,VALID,0,
2013-09-20, 03:12:04,VALID,916.047,VALID,0,VALID,94.7209,VALID,0,VALID,18.8268,VALID,353,VALID,0,
2013-09-20, 03:13:04,VALID,916.069,VALID,0,VALID,94.5685,VALID,0,VALID,18.8268,VALID,353,VALID,0,
2013-09-20, 03:14:04,VALID,916.12,VALID,0,VALID,94.6447,VALID,0,VALID,18.8282,VALID,353,VALID,0,
2013-09-20, 03:15:04,VALID,916.122,VALID,0,VALID,94.6371,VALID,0,VALID,18.8463,VALID,353,VALID,0,
2013-09-20, 03:16:04,VALID,916.111,VALID,0,VALID,94.6676,VALID,0,VALID,18.8268,VALID,353,VALID,0,
2013-09-20, 03:17:04,VALID,916.098,VALID,0,VALID,94.7972,VALID,0,VALID,18.8658,VALID,353,VALID,0,
2013-09-20, 03:18:04,VALID,916.119,VALID,0,VALID,94.4389,VALID,0,VALID,18.9048,VALID,353,VALID,0,
2013-09-20, 03:19:04,VALID,916.119,VALID,0,VALID,94.538,VALID,0,VALID,18.8853,VALID,353,VALID,0,
2013-09-20, 03:20:04,VALID,916.154,VALID,0,VALID,94.2026,VALID,0,VALID,18.9257,VALID,353,VALID,0,
2013-09-20, 03:21:04,VALID,916.087,VALID,0,VALID,93.768,VALID,0,VALID,18.8672,VALID,353,VALID,0,
2013-09-20, 03:22:04,VALID,916.045,VALID,0,VALID,93.0972,VALID,0,VALID,18.7878,VALID,353,VALID,0,
2013-09-20, 03:23:04,VALID,916.093,VALID,0,VALID,93.181,VALID,0,VALID,18.7683,VALID,353,VALID,0,
2013-09-20, 03:24:04,VALID,916.124,VALID,0,VALID,93.6842,VALID,0,VALID,18.8073,VALID,353,VALID,0,
2013-09-20, 03:25:04,VALID,916.169,VALID,0,VALID,93.4326,VALID,0,VALID,18.7683,VALID,353,VALID,0,
2013-09-20, 03:26:04,VALID,916.145,VALID,0,VALID,93.5393,VALID,0,VALID,18.7878,VALID,353,VALID,0,
2013-09-20, 03:27:04,VALID,916.138,VALID,0,VALID,93.2115,VALID,0,VALID,18.7878,VALID,343,VALID,0,
2013-09-20, 03:28:04,VALID,916.127,VALID,0,VALID,93.1276,VALID,0,VALID,18.7293,VALID,340,VALID,0,
2013-09-20, 03:29:04,VALID,916.135,VALID,0,VALID,93.3182,VALID,0,VALID,18.7308,VALID,265,VALID,0,
2013-09-20, 03:30:04,VALID,916.162,VALID,0,VALID,92.9904,VALID,0,VALID,18.6513,VALID,265,VALID,0,
2013-09-20, 03:31:04,VALID,916.194,VALID,0,VALID,92.5711,VALID,0,VALID,18.5734,VALID,265,VALID,0,
2013-09-20, 03:32:04,VALID,916.276,VALID,0,VALID,92.9828,VALID,0,VALID,18.6124,VALID,265,VALID,0,
2013-09-20, 03:33:04,VALID,916.263,VALID,0,VALID,93.0743,VALID,0,VALID,18.6333,VALID,265,VALID,0,
2013-09-20, 03:34:04,VALID,916.193,VALID,0,VALID,93.1276,VALID,0,VALID,18.6109,VALID,265,VALID,0,
2013-09-20, 03:35:04,VALID,916.164,VALID,0,VALID,93.4555,VALID,0,VALID,18.7293,VALID,265,VALID,0,
2013-09-20, 03:36:04,VALID,916.174,VALID,0,VALID,93.5012,VALID,0,VALID,18.8658,VALID,265,VALID,0,
2013-09-20, 03:37:04,VALID,916.183,VALID,0,VALID,93.0667,VALID,0,VALID,18.8658,VALID,265,VALID,0,
2013-09-20, 03:38:04,VALID,916.188,VALID,0,VALID,92.8761,VALID,0,VALID,18.8853,VALID,265,VALID,0,
2013-09-20, 03:39:04,VALID,916.188,VALID,0,VALID,92.411,VALID,0,VALID,18.9048,VALID,265,VALID,0,
2013-09-20, 03:40:04,VALID,916.204,VALID,0,VALID,92.4873,VALID,0,VALID,18.9438,VALID,265,VALID,0,
2013-09-20, 03:41:04,VALID,916.196,VALID,0,VALID,92.4263,VALID,0,VALID,18.9828,VALID,265,VALID,0,
2013-09-20, 03:42:04,VALID,916.208,VALID,0,VALID,92.3424,VALID,0,VALID,19.0023,VALID,265,VALID,0,
2013-09-20, 03:43:04,VALID,916.23,VALID,0,VALID,92.2738,VALID,0,VALID,19.0232,VALID,265,VALID,0,
2013-09-20, 03:44:04,VALID,916.253,VALID,0,VALID,91.9308,VALID,0,VALID,19.0218,VALID,265,VALID,0,
2013-09-20, 03:45:04,VALID,916.259,VALID,0,VALID,91.9613,VALID,0,VALID,19.0803,VALID,265,VALID,0,
2013-09-20, 03:46:04,VALID,916.241,VALID,0,VALID,91.0693,VALID,0,VALID,19.0998,VALID,265,VALID,0,
2013-09-20, 03:47:04,VALID,916.213,VALID,0,VALID,90.124,VALID,0,VALID,19.0803,VALID,265,VALID,0,
2013-09-20, 03:48:04,VALID,916.175,VALID,0,VALID,91.1684,VALID,0,VALID,19.0998,VALID,265,VALID,0,
2013-09-20, 03:49:04,VALID,916.171,VALID,0,VALID,91.7783,VALID,0,VALID,19.1583,VALID,265,VALID,0,
2013-09-20, 03:50:04,VALID,916.163,VALID,0,VALID,91.7402,VALID,0,VALID,19.1583,VALID,265,VALID,0,
2013-09-20, 03:51:04,VALID,916.138,VALID,0,VALID,91.8927,VALID,0,VALID,19.1583,VALID,265,VALID,0,
2013-09-20, 03:52:04,VALID,916.133,VALID,0,VALID,91.2599,VALID,0,VALID,19.1388,VALID,265,VALID,0,
2013-09-20, 03:53:04,VALID,916.134,VALID,0,VALID,91.7783,VALID,0,VALID,19.1597,VALID,310,VALID,0,
2013-09-20, 03:54:04,VALID,916.092,VALID,0,VALID,91.6411,VALID,0,VALID,19.0998,VALID,310,VALID,0,
2013-09-20, 03:55:04,VALID,916.062,VALID,0,VALID,91.2218,VALID,0,VALID,19.0218,VALID,310,VALID,0,
2013-09-20, 03:56:04,VALID,916.051,VALID,0,VALID,91.9841,VALID,0,VALID,18.9438,VALID,310,VALID,0,
2013-09-20, 03:57:04,VALID,916.064,VALID,0,VALID,92.2967,VALID,0,VALID,18.9048,VALID,310,VALID,0,
2013-09-20, 03:58:04,VALID,916.136,VALID,0,VALID,92.6702,VALID,0,VALID,18.8853,VALID,310,VALID,0,
2013-09-20, 03:59:04,VALID,916.107,VALID,0,VALID,92.6321,VALID,0,VALID,18.8463,VALID,310,VALID,0,
2013-09-20, 04:00:04,VALID,916.091,VALID,0,VALID,92.7541,VALID,0,VALID,18.8268,VALID,310,VALID,0,